Stations météo

réclame
Mon MeteoGroup
Dijon, France (7280): Température de l'air & dewpoint: 12.01.2020 00:00:00 - 18.01.2020 00:00:00 (CET)Dijon, France (7280): Température de l'air 5cm: 12.01.2020 00:00:00 - 18.01.2020 00:00:00 (CET)Dijon, France (7280): Température de l'air -20cm & Température de l'air -100cm: 12.01.2020 00:00:00 - 18.01.2020 00:00:00 (CET)Dijon, France (7280): Vitesse du vent & gusts: 12.01.2020 00:00:00 - 18.01.2020 00:00:00 (CET)Dijon, France (7280): Direction du vent: 12.01.2020 00:00:00 - 18.01.2020 00:00:00 (CET)Dijon, France (7280): reduced air pressure: 12.01.2020 00:00:00 - 18.01.2020 00:00:00 (CET)Dijon, France (7280): visibility: 12.01.2020 00:00:00 - 18.01.2020 00:00:00 (CET)Dijon, France (7280): Ensoleillement: 12.01.2020 00:00:00 - 18.01.2020 00:00:00 (CET)Dijon, France (7280): Quantités de précipitations: 12.01.2020 00:00:00 - 18.01.2020 00:00:00 (CET)
Date & Time tt [°C] td [°C] tt 5cm [°C] tt -20cm [°C] tt -100cm [°C] ff [km/h] ff [knt] fx [km/h] fx [knt] dd ppp [hPa] vv [km] sd [min] rr [mm]
18.01.2020 00:00:00 - - - - - - - - - - - - - -
17.01.2020 23:00:00 5,7 3,2 3,3 7,0 9,1 7 4 11 6 SW 1027,0 60 0 0,0
17.01.2020 22:00:00 6,5 4,0 4,6 6,9 9,1 7 4 19 10 WSW 1026,5 55 0 0,0
17.01.2020 21:00:00 6,9 4,2 4,0 6,9 9,1 7 4 18 10 W 1025,6 58 0 0,0
17.01.2020 20:00:00 7,0 5,0 4,5 6,9 9,1 9 5 16 8 WSW 1024,8 55 0 0,0
17.01.2020 19:00:00 7,4 6,2 4,8 6,9 9,1 5 3 13 7 W 1023,8 13 0 0,0
17.01.2020 18:00:00 7,4 6,2 5,8 6,8 9,1 4 2 13 7 SSW 1023,1 42 0 0,0
17.01.2020 17:00:00 8,6 6,7 7,3 6,8 9,1 9 5 17 9 WSW 1022,0 43 0 0,0
17.01.2020 16:00:00 8,9 7,8 8,7 6,7 9,1 10 5 18 10 SW 1021,5 19 0 0,0
17.01.2020 15:00:00 8,6 7,8 8,7 6,7 9,1 14 7 20 11 SW 1021,2 14 0 0,0
17.01.2020 14:00:00 8,0 7,4 7,9 6,7 9,1 15 8 27 14 SW 1021,2 9 0 0,0
17.01.2020 13:00:00 7,8 7,2 7,5 6,6 9,1 19 10 29 16 SW 1021,4 9 0 0,2
17.01.2020 12:00:00 7,3 6,9 7,1 6,7 9,1 16 9 24 13 WSW 1022,0 7 0 0,6
17.01.2020 11:00:00 7,2 6,3 6,7 6,7 9,1 19 10 27 15 SW 1022,0 8 0 1,2
17.01.2020 10:00:00 7,5 5,6 5,6 6,7 9,1 14 8 20 11 SW 1022,1 18 0 0,0
17.01.2020 09:00:00 6,8 4,9 5,5 6,8 9,1 13 7 22 12 SW 1022,0 26 0 0,0
17.01.2020 08:00:00 6,7 5,0 5,0 6,9 9,1 13 7 23 12 SW 1021,8 27 0 0,0
17.01.2020 07:00:00 5,9 4,7 1,1 7,0 9,1 10 6 16 9 SW 1021,8 23 0 0,0
17.01.2020 06:00:00 2,9 2,6 -0,7 7,0 9,1 5 3 10 5 SSW 1021,8 15 0 0,0
17.01.2020 05:00:00 3,2 2,9 -0,8 7,1 9,1 5 3 8 4 SSW 1022,1 1,4 0 0,0
17.01.2020 04:00:00 3,4 3,0 -0,2 7,2 9,1 2 1 14 7 SSW 1022,5 12 0 0,0
17.01.2020 03:00:00 5,1 3,9 -0,8 7,3 9,1 8 4 22 12 SSW 1022,8 16 0 0,0
17.01.2020 02:00:00 4,5 4,1 -0,7 7,4 9,1 6 3 9 5 S 1023,4 15 0 0,0
17.01.2020 01:00:00 4,3 3,9 0,5 7,5 9,1 7 4 13 7 S 1023,4 19 0 0,0
17.01.2020 00:00:00 4,8 3,3 0,5 7,5 9,1 6 4 10 6 S 1023,8 19 0 0,0
16.01.2020 23:00:00 5,7 3,4 0,4 7,6 9,1 8 4 11 6 SSW 1023,8 32 0 0,0
16.01.2020 22:00:00 5,1 2,4 0,4 7,6 9,1 9 5 13 7 S 1024,1 49 0 0,0
16.01.2020 21:00:00 5,6 3,3 0,8 7,6 9,1 5 3 14 8 SW 1024,6 34 0 0,0
16.01.2020 20:00:00 6,5 3,1 3,1 7,5 9,1 5 3 16 8 S 1024,9 43 0 0,0
16.01.2020 19:00:00 6,5 3,6 3,1 7,5 9,1 9 5 18 10 SSE 1025,5 59 0 0,0
16.01.2020 18:00:00 8,2 4,6 5,7 7,4 9,1 14 7 18 10 SSE 1025,3 57 2 0,0
16.01.2020 17:00:00 11,0 5,5 7,9 7,3 9,1 8 4 20 11 S 1025,1 54 60 0,0
16.01.2020 16:00:00 12,4 5,8 11,8 7,2 9,1 14 7 24 13 S 1025,2 46 60 0,0
16.01.2020 15:00:00 13,2 6,1 13,9 7,1 9,1 7 4 15 8 SSW 1025,4 53 60 0,0
16.01.2020 14:00:00 12,5 6,3 14,7 7,0 9,1 11 6 21 12 SSW 1026,0 60 60 0,0
16.01.2020 13:00:00 11,9 5,7 14,3 7,0 9,1 14 7 23 12 S 1026,6 60 60 0,0
16.01.2020 12:00:00 11,3 5,8 13,7 7,0 9,1 13 7 21 11 S 1027,4 60 60 0,0
16.01.2020 11:00:00 10,2 6,5 11,2 7,0 9,1 6 4 11 6 SSE 1028,2 20 60 0,0
16.01.2020 10:00:00 8,4 6,4 4,8 7,0 9,1 0 0 4 2 N 1028,3 14 60 0,0
16.01.2020 09:00:00 6,3 5,6 5,0 7,1 9,1 4 2 5 3 SE 1028,6 10 11 0,0
16.01.2020 08:00:00 5,9 5,3 5,1 7,1 9,1 3 1 8 4 SSE 1028,5 10 0 0,0
16.01.2020 07:00:00 6,1 5,5 5,6 7,1 9,1 7 4 9 5 SSE 1028,0 13 0 0,0
16.01.2020 06:00:00 5,9 5,3 2,2 7,1 9,1 3 1 7 4 N 1028,1 14 0 0,0
16.01.2020 05:00:00 5,7 4,5 2,0 7,1 9,1 4 2 9 5 W 1028,0 12 0 0,0
16.01.2020 04:00:00 7,2 5,7 3,6 7,1 9,1 3 2 10 6 SW 1028,1 24 0 0,0
16.01.2020 03:00:00 6,9 5,0 3,9 7,1 9,1 9 5 18 10 SW 1027,8 36 0 0,0
16.01.2020 02:00:00 8,0 5,5 6,4 7,1 9,1 14 7 19 11 SW 1027,1 45 0 0,0
16.01.2020 01:00:00 8,9 5,8 8,0 7,1 9,1 11 6 18 10 SW 1027,2 57 0 0,0
16.01.2020 00:00:00 9,2 5,9 8,3 7,0 9,1 13 7 25 14 SW 1026,8 56 0 0,0
15.01.2020 23:00:00 9,5 5,9 8,6 7,0 9,1 17 9 33 18 SW 1026,5 60 0 0,0
15.01.2020 22:00:00 9,6 5,8 8,2 7,0 9,1 22 12 32 17 SW 1025,7 60 0 0,0
15.01.2020 21:00:00 9,6 5,8 8,3 6,9 9,1 19 10 34 19 SW 1024,9 60 0 0,0
15.01.2020 20:00:00 10,0 5,6 8,1 6,9 9,1 21 11 38 20 SW 1024,4 60 0 0,0
15.01.2020 19:00:00 10,9 5,4 9,2 6,8 9,1 26 14 42 23 SW 1023,3 60 0 0,0
15.01.2020 18:00:00 11,4 5,3 9,5 6,7 9,1 23 13 36 20 SW 1022,3 60 0 0,0
15.01.2020 17:00:00 12,0 5,2 9,9 6,7 9,2 21 11 45 25 SW 1021,4 60 32 0,0
15.01.2020 16:00:00 13,1 5,5 12,1 6,6 9,1 33 18 50 27 SW 1020,5 44 60 0,0
15.01.2020 15:00:00 13,4 5,5 13,2 6,5 9,1 37 20 60 33 SW 1020,2 37 60 0,0
15.01.2020 14:00:00 13,7 5,6 12,4 6,5 9,1 35 19 57 31 SW 1019,4 44 54 0,0
15.01.2020 13:00:00 13,1 5,7 13,5 6,5 9,1 37 20 55 30 SW 1019,4 39 60 0,0
15.01.2020 12:00:00 11,9 5,5 12,2 6,5 9,2 19 10 32 17 WSW 1019,8 47 60 0,0
15.01.2020 11:00:00 10,2 5,4 8,0 6,6 9,1 17 9 27 15 SW 1019,9 53 60 0,0
15.01.2020 10:00:00 7,3 4,6 -0,2 6,7 9,1 5 3 12 6 SW 1019,7 53 58 0,0
15.01.2020 09:00:00 2,6 2,2 -1,9 6,7 9,1 8 5 10 5 S 1019,8 19 3 0,0
15.01.2020 08:00:00 2,3 2,0 -1,9 6,8 9,1 4 2 8 4 SSW 1019,4 20 0 0,0
15.01.2020 07:00:00 2,3 1,3 -1,3 6,8 9,1 5 3 8 4 SSE 1019,3 43 0 0,0
15.01.2020 06:00:00 3,9 3,3 -0,5 6,9 9,1 4 2 6 3 SW 1019,0 53 0 0,0
15.01.2020 05:00:00 6,1 3,8 1,6 6,9 9,1 6 3 14 8 SSW 1018,5 60 0 0,0
15.01.2020 04:00:00 6,2 4,0 3,4 6,9 9,1 11 6 17 9 SW 1018,3 53 0 0,0
15.01.2020 03:00:00 7,0 4,1 3,8 7,0 9,2 14 8 21 12 SW 1018,4 60 0 0,0
15.01.2020 02:00:00 7,0 4,3 3,8 7,0 9,2 8 4 16 9 WSW 1018,3 55 0 0,0
15.01.2020 01:00:00 6,4 4,1 4,0 6,9 9,1 9 5 16 9 SSW 1018,5 56 0 0,0
15.01.2020 00:00:00 7,8 4,6 4,9 6,9 9,1 9 5 16 8 SSW 1018,7 53 0 0,0
14.01.2020 23:00:00 8,0 4,4 5,6 6,9 9,1 8 4 18 10 SW 1018,6 50 0 0,0
14.01.2020 22:00:00 8,2 4,2 6,3 6,9 9,1 15 8 29 16 SW 1018,4 56 0 0,0
14.01.2020 21:00:00 8,9 4,1 6,7 6,8 9,1 17 9 27 15 SW 1018,4 60 0 0,0
14.01.2020 20:00:00 9,3 4,3 6,9 6,8 9,2 16 9 28 15 SW 1018,3 60 0 0,0
14.01.2020 19:00:00 9,7 4,9 7,9 6,8 9,2 20 11 29 16 SW 1017,7 60 0 0,0
14.01.2020 18:00:00 10,2 5,2 8,0 6,7 9,2 19 10 26 14 SW 1017,6 60 0 0,0
14.01.2020 17:00:00 10,9 5,2 9,0 6,6 9,1 16 8 31 17 SW 1017,4 60 9 0,0
14.01.2020 16:00:00 11,9 5,7 11,0 6,5 9,2 24 13 44 24 SW 1017,3 51 14 0,0
14.01.2020 15:00:00 11,9 5,7 11,1 6,4 9,2 29 16 46 25 SW 1017,0 60 1 0,0
14.01.2020 14:00:00 11,1 5,6 11,1 6,4 9,2 23 13 39 21 SW 1017,2 41 0 0,0
14.01.2020 13:00:00 10,3 5,5 10,6 6,4 9,1 15 8 37 20 WSW 1017,9 48 20 0,0
14.01.2020 12:00:00 9,5 4,7 9,1 6,4 9,1 25 13 35 19 SW 1018,1 60 0 0,0
14.01.2020 11:00:00 7,5 4,1 6,6 6,4 9,2 21 12 34 19 SW 1018,6 40 0 0,0
14.01.2020 10:00:00 6,1 3,3 4,9 6,4 9,1 14 8 - - SW 1018,3 28 5 0,0
14.01.2020 09:00:00 4,9 2,8 2,0 6,5 9,1 - - - - - 1017,8 20 18 0,0
14.01.2020 08:00:00 4,0 2,0 2,4 6,5 9,1 - - - - - 1017,8 19 0 0,0
14.01.2020 07:00:00 4,2 2,1 2,1 6,6 9,1 - - - - - 1017,5 21 0 0,0
14.01.2020 06:00:00 4,0 1,9 1,9 6,7 9,2 - - - - - 1017,3 19 0 0,0
14.01.2020 05:00:00 3,8 2,0 1,6 6,7 9,1 - - - - - 1017,6 14 0 0,0
14.01.2020 04:00:00 3,5 2,0 2,0 6,8 9,1 - - - - - 1017,4 9 0 0,0
14.01.2020 03:00:00 3,5 2,0 2,0 6,9 9,2 - - - - - 1017,7 13 0 0,0
14.01.2020 02:00:00 3,6 2,4 1,7 6,9 9,1 - - - - - 1017,7 10 0 0,0
14.01.2020 01:00:00 3,0 2,3 0,8 7,0 9,2 - - - - - 1018,2 8 0 0,0
14.01.2020 00:00:00 2,5 2,5 -0,9 7,0 9,1 - - - - - 1018,4 4,5 0 0,0
13.01.2020 23:00:00 0,5 0,4 -0,7 7,1 9,1 - - - - - 1019,0 0,3 0 0,0
13.01.2020 22:00:00 2,1 2,1 -0,4 7,1 9,1 - - - - - 1018,5 0,3 0 0,0
13.01.2020 21:00:00 2,1 2,0 0,0 7,1 9,1 - - - - - 1018,9 0,2 0 0,0
13.01.2020 20:00:00 3,1 2,5 0,3 7,1 9,1 - - - - - 1019,5 0,3 0 0,0
13.01.2020 19:00:00 5,1 4,5 2,8 7,0 9,1 - - - - - 1019,6 9 0 0,0
13.01.2020 18:00:00 6,0 5,3 5,9 7,0 9,2 - - - - - 1020,4 11 0 0,0
13.01.2020 17:00:00 5,8 5,4 6,0 7,0 9,1 - - - - - 1020,3 8 0 0,0
13.01.2020 16:00:00 6,3 5,9 6,7 6,9 9,1 - - - - - 1020,4 3,7 0 0,0
13.01.2020 15:00:00 6,8 5,9 7,6 6,9 9,1 - - - - - 1020,4 11 0 0,0
13.01.2020 14:00:00 7,2 6,3 7,8 6,8 9,1 - - - - - 1021,6 4,7 0 0,0
13.01.2020 13:00:00 6,4 5,8 6,7 6,9 9,1 - - - - - 1022,9 3,6 0 0,0
13.01.2020 12:00:00 5,9 5,3 6,5 6,9 9,1 - - - - - 1023,8 6 0 0,0
13.01.2020 11:00:00 5,3 5,0 6,1 6,8 9,1 14 8 23 12 NW 1024,2 2,0 0 0,0
13.01.2020 10:00:00 5,2 4,9 5,0 6,9 9,1 11 6 19 10 NW 1024,6 4,2 0 0,0
13.01.2020 09:00:00 4,7 4,6 4,7 6,9 9,1 8 5 13 7 NW 1024,6 4,5 0 0,0
13.01.2020 08:00:00 4,5 4,2 4,6 6,9 9,1 4 2 10 5 WNW 1025,1 4,5 0 0,0
13.01.2020 07:00:00 4,4 4,1 4,5 6,9 9,1 6 4 13 7 WNW 1025,3 3,9 0 0,2
13.01.2020 06:00:00 4,4 4,1 4,6 6,9 9,1 7 4 10 6 WNW 1025,9 3,2 0 0,0
13.01.2020 05:00:00 4,4 4,1 4,7 6,9 9,1 5 3 11 6 WNW 1026,6 4,5 0 0,0
13.01.2020 04:00:00 4,4 4,1 4,7 6,9 9,1 0 0 6 4 N 1026,9 4,5 0 0,0
13.01.2020 03:00:00 4,5 4,2 4,7 6,9 9,1 4 2 7 4 WNW 1027,4 4,5 0 0,0
13.01.2020 02:00:00 4,4 4,0 4,7 6,9 9,1 3 2 8 4 WNW 1027,6 3,8 0 0,0
13.01.2020 01:00:00 4,4 4,0 4,7 7,0 9,1 6 3 13 7 NW 1028,4 2,6 0 0,0
13.01.2020 00:00:00 4,6 3,6 4,4 7,0 9,1 7 4 12 7 WNW 1029,0 11 0 0,0
12.01.2020 23:00:00 4,8 3,3 4,8 7,0 9,1 7 4 10 5 WNW 1029,2 8 0 0,0
12.01.2020 22:00:00 5,1 2,6 5,1 7,0 9,1 4 2 9 5 WNW 1029,5 19 0 0,0
12.01.2020 21:00:00 5,2 2,7 5,1 7,0 9,1 5 3 11 6 WNW 1029,8 20 0 0,0
12.01.2020 20:00:00 5,4 2,6 4,8 7,0 9,1 7 4 11 6 WNW 1030,1 21 0 0,0
12.01.2020 19:00:00 5,2 2,2 4,8 7,0 9,1 9 5 12 7 WNW 1030,0 25 0 0,0
12.01.2020 18:00:00 5,4 2,0 3,9 6,9 9,1 10 5 14 8 WNW 1029,8 29 0 0,0
12.01.2020 17:00:00 5,1 2,1 3,7 6,9 9,1 8 4 12 7 W 1029,8 26 0 0,0
12.01.2020 16:00:00 6,1 2,0 5,9 6,8 9,1 10 5 16 8 W 1029,7 29 32 0,0
12.01.2020 15:00:00 6,3 2,0 6,4 6,8 9,1 10 5 19 10 WNW 1029,9 26 10 0,0
12.01.2020 14:00:00 6,5 1,8 9,0 6,8 9,1 13 7 23 13 WNW 1030,1 20 55 0,0
12.01.2020 13:00:00 6,3 2,2 8,0 6,8 9,1 14 8 22 12 WNW 1030,7 26 57 0,0
12.01.2020 12:00:00 5,7 1,6 7,4 6,8 9,1 14 8 22 12 WNW 1031,5 30 60 0,0
12.01.2020 11:00:00 4,8 0,7 6,8 6,9 9,1 11 6 16 9 WNW 1031,7 20 60 0,0
12.01.2020 10:00:00 3,7 0,4 3,1 6,9 9,1 9 5 17 9 WNW 1031,6 36 48 0,0
12.01.2020 09:00:00 2,9 0,5 2,7 7,0 9,1 8 5 18 10 WNW 1031,2 33 0 0,0
12.01.2020 08:00:00 3,2 0,6 2,3 7,0 9,1 14 8 21 12 WNW 1031,0 33 0 0,0
12.01.2020 07:00:00 2,8 0,8 2,0 7,1 9,1 7 4 13 7 NW 1030,6 37 0 0,0
12.01.2020 06:00:00 3,3 0,9 2,2 7,1 9,1 10 5 19 10 WNW 1030,1 32 0 0,0
12.01.2020 05:00:00 3,4 1,3 2,4 7,1 9,1 10 5 21 11 WNW 1030,4 30 0 0,0
12.01.2020 04:00:00 2,7 2,1 2,3 7,2 9,1 6 4 10 5 WNW 1030,7 8 0 0,0
12.01.2020 03:00:00 2,5 2,1 2,4 7,2 9,1 0 0 5 3 N 1031,2 3,8 0 0,0
12.01.2020 02:00:00 2,6 2,0 2,5 7,3 9,1 0 0 4 2 N 1031,4 4,7 0 0,0
12.01.2020 01:00:00 2,9 2,5 2,0 7,3 9,1 0 0 2 1 N 1031,6 6 0 0,0
12.01.2020 00:00:00 2,9 2,3 2,1 7,3 9,1 0 0 3 2 N 1032,1 6 0 0,0

tt = Température de l'air
td = dewpoint
tt 5cm = Température de l'air 5cm
tt -20cm = Température de l'air -20cm
tt -100cm = Température de l'air -100cm
ff = Vitesse du vent
fx = gusts
dd = Direction du vent
ppp = reduced air pressure
vv = visibility
sd = Ensoleillement
rr = Quantités de précipitations

stations d'obs. à proximité